Location: Navajo
(48.7922°N, 105.0603°W)
Time: 15:32:08
(UTC+00:00)

QB50P2 - Pass Details

Date: 01 July 2022
Orbit: 590 x 605 km, 97.9° (Epoch: 06 August)

Event Time Altitude Azimuth Distance (km) Brightness Sun altitude
Rises 09:44:03 0° 1° (N) 2,860 ? -9.7°
Reaches altitude 10° 09:46:40 10° 345° (NNW) 1,954 ? -9.5°
Maximum altitude 09:49:46 20° 298° (WNW) 1,406 ? -9.2°
Drops below altitude 10° 09:52:51 10° 251° (WSW) 1,949 ? -8.9°
Enters shadow 09:53:17 - 247° (WSW) 2,083 ? -8.8°
